OPS 7329

operational
NORAD ID: 4510 Int'l Des: 1970-069 Owner: SAMSO Country: US
HEOELLIPTICAL

About OPS 7329

Description loading...

Live Position

Loading 3D Globe...

Upcoming Passes

Altitude History

Altitude vs Time

uPlot chart will show altitude changes over time

Two-Line Element Set

1 4510U 70069A 26061.17753094 -.00000301 00000-0 00000+0 0 9997
2 4510 10.5396 160.4586 1015431 105.3199 248.7202 1.00177757 23712
Epoch: Mar 2, 2026 • Age: 34 hours

Current Status

Altitude 31986.7 km
Velocity 3.37 km/s
Sub-Earth Point 10.29°N, 75.27°W
Type other

Large Constellations

Loading constellations...